This is the latest recevied weather packets stored in our database for station/object WA4TPR. If no packets are shown the sender has not sent any weather packets the latest 10 day(s).
| Time | Temp. | Humidity | Pressure | Rain* | Wind** | Luminosity | Snow |
|---|---|---|---|---|---|---|---|
| 1777506787 | 28.89° C | 53% | 1015.7 hPa | 0 mm | - | 6 W/m² | - |
| 1777506483 | 28.89° C | 52% | 1015.8 hPa | 0 mm | - | 10 W/m² | - |
| 1777506179 | 29.44° C | 53% | 1015.7 hPa | 0 mm | - | 15 W/m² | - |
| 1777505875 | 30° C | 51% | 1015.5 hPa | 0 mm | - | 20 W/m² | - |
| 1777505571 | 30° C | 51% | 1015.1 hPa | 0 mm | - | 27 W/m² | - |
| 1777505268 | 30° C | 50% | 1015.1 hPa | 0 mm | - | 35 W/m² | - |
| 1777504965 | 30.56° C | 49% | 1015.1 hPa | 0 mm | - | 43 W/m² | - |
| 1777504661 | 31.67° C | 46% | 1014.9 hPa | 0 mm | - | 54 W/m² | - |
| 1777504359 | 31.67° C | 46% | 1014.9 hPa | 0 mm | - | 65 W/m² | - |
| 1777504053 | 31.67° C | 47% | 1015.2 hPa | 0 mm | - | 76 W/m² | - |
| 1777503750 | 31.67° C | 47% | 1015.1 hPa | 0 mm | - | 87 W/m² | - |
| 1777503447 | 31.67° C | 47% | 1015 hPa | 0 mm | - | 100 W/m² | - |
| 1777503142 | 31.67° C | 47% | 1014.9 hPa | 0 mm | - | 113 W/m² | - |
| 1777502840 | 31.67° C | 48% | 1015.3 hPa | 0 mm | - | 128 W/m² | - |
| 1777502538 | 31.11° C | 50% | 1015 hPa | 0 mm | - | 144 W/m² | - |
| 1777502235 | 31.67° C | 50% | 1014.9 hPa | 0 mm | - | 159 W/m² | - |
| 1777501932 | 31.67° C | 49% | 1015.1 hPa | 0 mm | - | 175 W/m² | - |
| 1777501629 | 31.67° C | 50% | 1015.1 hPa | 0 mm | - | 191 W/m² | - |
| 1777501325 | 31.11° C | 49% | 1015.2 hPa | 0 mm | - | 209 W/m² | - |
| 1777501023 | 31.11° C | 49% | 1015.2 hPa | 0 mm | - | 228 W/m² | - |
| 1777500721 | 31.67° C | 51% | 1015.4 hPa | 0 mm | - | 243 W/m² | - |
| 1777500417 | 31.67° C | 49% | 1015.3 hPa | 0 mm | - | 258 W/m² | - |
| 1777500113 | 32.22° C | 47% | 1015.5 hPa | 0 mm | - | 277 W/m² | - |
| 1777499810 | 32.22° C | 48% | 1015.6 hPa | 0 mm | - | 298 W/m² | - |
| 1777499507 | 31.67° C | 46% | 1015.6 hPa | 0 mm | - | 318 W/m² | - |
* Rain latest hour (hover to see other rain measurements)
** Current wind speed in m/s (hover to see current wind gust speed)